This demonstration page uses our WeatherBlox Daily Observations layout. Learn more.

Left ArrowRight Arrow

44.8408, -93.29828

Hourly Observations for October 5, 2021

Temp ( °F °C ) Dew Point ( °F °C ) Humidity (%) Winds ( mph kmh ) Pressure ( in mb ) Visibility ( mi km ) Precip ( " mm )
12:53 am 00:53 Clear 59 15 55 12.8 87 87 ESE 3 6 30.19 1023 10 16 0.00 0.00
1:53 am 01:53 Clear 58 14.4 54 12.2 87 87 E 3 6 30.20 1023 10 16 0.00 0.00
2:53 am 02:53 Clear 57 13.9 54 12.2 90 90 Calm 30.21 1023 10 16 0.00 0.00
3:53 am 03:53 Clear 56 13.3 53 11.7 90 90 Calm 30.22 1023 10 16 0.00 0.00
4:53 am 04:53 Clear 56 13.3 53 11.7 90 90 Calm 30.22 1024 10 16 0.00 0.00
5:53 am 05:53 Clear 54 12.2 52 11.1 93 93 Calm 30.24 1024 10 16 0.00 0.00
6:53 am 06:53 Mostly Clear 55 12.8 53 11.7 93 93 Calm 30.25 1024 9 14 0.00 0.00
7:53 am 07:53 Mostly Sunny 57 13.9 55 12.8 93 93 ESE 3 6 30.26 1025 8 13 0.00 0.00
8:53 am 08:53 Partly Cloudy with Mist and Fog 59 15 56 13.3 90 90 E 3 6 30.27 1025 5 8 0.00 0.00
9:53 am 09:53 Partly Cloudy with Mist and Fog 61 16.1 57 13.9 87 87 Calm 30.29 1026 5 8 0.00 0.00
10:53 am 10:53 Partly Cloudy 65 18.3 58 14.4 78 78 Calm 30.29 1026 10 16 0.00 0.00
11:53 am 11:53 Partly Cloudy 69 20.6 59 15 70 70 Calm 30.28 1025 10 16 0.00 0.00
12:53 pm 12:53 Mostly Cloudy 72 22.2 56 13.3 57 57 ESE 3 6 30.26 1025 10 16 0.00 0.00
1:53 pm 13:53 Mostly Cloudy 74 23.3 55 12.8 52 52 SSE 6 9 30.24 1024 10 16 0.00 0.00
2:53 pm 14:53 Partly Cloudy 75 23.9 55 12.8 50 50 SSE 9 15 30.23 1024 10 16 0.00 0.00
3:53 pm 15:53 Partly Cloudy 75 23.9 55 12.8 50 50 SE 8 13 30.22 1023 10 16 0.00 0.00
4:53 pm 16:53 Partly Cloudy 75 23.9 54 12.2 48 48 ESE 12 19 30.21 1023 10 16 0.00 0.00
5:53 pm 17:53 Mostly Sunny 73 22.8 54 12.2 51 51 SE 10 17 30.22 1023 10 16 0.00 0.00
6:53 pm 18:53 Clear 70 21.1 55 12.8 59 59 SE 10 17 30.22 1023 10 16 0.00 0.00
7:53 pm 19:53 Clear 67 19.4 55 12.8 66 66 SSE 7 11 30.24 1024 10 16 0.00 0.00
8:53 pm 20:53 Clear 65 18.3 54 12.2 68 68 SE 8 13 30.24 1024 10 16 0.00 0.00
9:53 pm 21:53 Clear 63 17.2 56 13.3 78 78 SSE 8 13 30.24 1024 10 16 0.00 0.00
10:53 pm 22:53 Clear 62 16.7 56 13.3 80 80 SE 8 13 30.25 1024 10 16 0.00 0.00
11:53 pm 23:53 Clear 61 16.1 55 12.8 81 81 SE 6 9 30.25 1025 10 16 0.00 0.00

Powered by AerisWeather